User: anonymous   Login
Location: Oshawa
(43.9000°N, 78.8670°W)
Time: 13:05:12
(UTC-05:00)
Language:

Explorer 11/Cluster Stage 4 - Orbit

View from above orbital plane
View from above orbital plane
View from above satellite
View from above satellite

Ground track
Ground track

The orbit data is extracted from the following two-line orbital elements,

1 00107U 61013A   16343.13348824  .00000452  00000-0  38566-4 0  9992
2 00107  28.7896 247.8815 0550033 209.8564 146.9521 14.08139162784119
Epoch (UTC): 08 December 2016 03:12:13
Eccentricity: 0.0550033
inclination: 28.7896°
perigee height: 467 km
apogee height: 1264 km
right ascension of ascending node: 247.8815°
argument of perigee: 209.8564°
revolutions per day: 14.08139162
mean anomaly at epoch: 146.9521°
orbit number at epoch: 78411

The dashed part of the orbit path shows where the satellite is in the earth's shadow,  

DLR